Location: Hamilton
(37.7830°S, 175.2830°E)
Time: 23:18:37
(UTC+13:00)

Cosmos 841 Rocket - Pass Details

Date: 24 January 2019
Orbit: 748 x 771 km, 74.0° (Epoch: 18 February)

Event Time Altitude Azimuth Distance (km) Brightness Sun altitude
Rises 22:54:46 0° 205° (SSW) 3,280 8.1 -22.2°
Reaches altitude 10° 22:57:14 10° 210° (SSW) 2,345 7.1 -22.5°
Maximum altitude 23:02:20 48° 283° (WNW) 1,016 4.2 -23.2°
Enters shadow 23:04:13 33° 333° (NNW) 1,277 4.4 -23.4°
